KF4LQQ-13 Weather Reports


time (UTC)temp
C
wind
direction
speed
KPH
gust
KPH
rain 1hr
cm
rain 24hr
cm
rain mn
cm
humidity
%
barometer
mb
20260503072354 22 21 12.9 19.3 0.00 0.00 0.15 1011.1
20260503071354 22 330 14.5 17.7 0.00 0.00 0.13 1011.5
20260503070523 22 346 14.5 19.3 0.00 0.00 0.13 1011.9
20260503070353 22 329 17.7 22.5 0.00 0.00 0.13 1011.8
20260503054351 22 0 0.0 0.0 0.00 0.00 0.00 1011.7
20260503053351 22 0 0.0 0.0 0.00 0.00 0.00 1012.0
20260503052351 22 0 0.0 0.0 0.00 0.00 0.00 1011.9
20260503051350 22 0 0.0 0.0 0.00 0.00 0.00 1011.8
20260503050350 22 0 0.0 0.0 0.00 0.00 0.00 1012.1
20260503045350 22 0 0.0 0.0 0.00 0.00 0.00 1012.2
20260503044349 22 0 0.0 0.0 0.00 0.00 1.52 1012.1
20260503043347 22 0 0.0 0.0 0.00 0.00 1.52 1011.9
20260503041346 22 0 0.0 0.0 0.00 0.00 1.52 1012.0
20260503041134 22 0 0.0 0.0 0.00 0.00 1.52 1011.9
20260503040345 22 0 0.0 0.0 0.00 0.00 1.52 1011.9
20260503035345 22 0 0.0 0.0 0.00 0.00 1.52 1011.7
20260503034345 22 0 0.0 0.0 0.00 0.00 1.52 1011.4
20260503033344 22 0 0.0 0.0 0.00 0.00 1.52 1011.1
20260503032343 22 0 0.0 0.0 0.00 0.00 1.52 1011.1
20260503025340 22 0 0.0 0.0 0.00 0.00 1.52 1010.6
20260503024338 22 0 0.0 0.0 0.00 0.00 1.52 1011.1
20260503023337 23 0 0.0 0.0 0.00 0.00 1.52 1011.0
20260503022840 22 0 0.0 0.0 0.00 0.00 1.52 1010.4
20260503021337 22 0 0.0 0.0 0.00 0.00 1.52 1010.7
20260503020337 22 0 0.0 0.0 0.00 0.00 1.52 1010.9
20260503014335 22 0 0.0 0.0 0.00 0.00 1.52 1010.7
20260503013332 22 0 0.0 0.0 0.00 0.00 1.52 1010.6
20260503011332 22 60 3.2 11.3 0.00 0.00 1.52 1009.0
20260503010331 22 0 0.0 0.0 0.00 0.00 1.52 1009.4
20260503005328 22 0 0.0 0.0 0.00 0.00 1.52 1009.5
20260503004328 23 311 1.6 6.4 0.00 0.00 1.50 1009.8
20260503003326 22 0 0.0 0.0 0.00 0.00 1.50 1009.3
20260503001325 22 0 0.0 0.0 0.00 0.00 1.50 1009.4
20260502235322 23 250 1.6 4.8 0.00 0.00 1.50 1008.7
20260502233321 22 243 6.4 11.3 0.00 0.00 1.47 1009.2
20260502232321 23 0 0.0 0.0 0.00 0.00 1.47 1008.9
20260502231320 23 0 0.0 0.0 0.00 0.00 1.45 1009.4
20260502230320 23 0 0.0 0.0 0.00 0.00 1.45 1008.9
20260502225319 23 0 0.0 0.0 0.00 0.00 1.45 1008.8
20260502224319 23 0 0.0 0.0 0.00 0.00 1.42 1009.2
20260502223317 24 0 0.0 0.0 0.00 0.00 1.42 1008.8
20260502222316 23 0 0.0 0.0 0.00 0.00 1.40 1009.0
20260502221312 24 0 0.0 0.0 0.00 0.00 1.35 1008.9
20260502220312 24 0 0.0 0.0 0.00 0.00 1.32 1009.1
20260502215311 23 0 0.0 0.0 0.00 0.00 1.30 1008.9
20260502214312 24 0 0.0 0.0 0.00 0.00 1.27 1008.8
20260502213311 24 0 0.0 0.0 0.00 0.00 1.24 1008.8
20260502212307 25 285 12.9 19.3 0.00 0.00 1.22 1008.3
20260502205343 24 290 12.9 19.3 0.00 0.00 0.43 1009.0
20260502205306 24 290 12.9 19.3 0.00 0.00 0.43 1009.0
20260502204305 25 339 16.1 24.1 0.00 0.00 0.41 1008.4
20260502203305 25 293 20.9 27.4 0.00 0.00 0.30 1008.4
20260502202537 27 240 9.7 19.3 0.00 0.00 0.00 1007.8
20260502202305 27 240 9.7 19.3 0.00 0.00 0.00 1007.8
20260502201305 27 232 12.9 25.7 0.00 0.00 0.00 1008.1
20260502200304 27 293 9.7 17.7 0.00 0.00 0.00 1008.0
20260502195305 27 194 8.0 9.7 0.00 0.00 0.00 1008.0
20260502194304 27 257 14.5 22.5 0.00 0.00 0.00 1008.4
20260502193304 27 232 12.9 24.1 0.00 0.00 0.00 1008.7
20260502192305 27 246 9.7 19.3 0.00 0.00 0.00 1008.7
20260502191303 27 257 19.3 38.6 0.00 0.00 0.00 1008.7
20260502190303 27 229 9.7 19.3 0.00 0.00 0.00 1008.8
20260502185300 27 231 11.3 24.1 0.00 0.00 0.00 1008.8
20260502184258 28 250 11.3 22.5 0.00 0.00 0.00 1008.9
20260502183257 28 245 19.3 38.6 0.00 0.00 0.00 1009.0
20260502182257 28 253 16.1 22.5 0.00 0.00 0.00 1008.9
20260502181257 29 235 12.9 25.7 0.00 0.00 0.00 1009.2
20260502180257 29 233 14.5 22.5 0.00 0.00 0.00 1009.5
20260502170254 28 245 14.5 32.2 0.00 0.00 0.00 1009.6
20260502163253 28 248 16.1 33.8 0.00 0.00 0.00 1009.7
20260502162253 28 252 20.9 40.2 0.00 0.00 0.00 1009.8
20260502161252 28 205 12.9 24.1 0.00 0.00 0.00 1009.8
20260502160252 28 267 19.3 38.6 0.00 0.00 0.00 1010.0
20260502152251 27 235 12.9 24.1 0.00 0.00 0.00 1009.2
20260502151251 27 224 11.3 22.5 0.00 0.00 0.00 1009.2
20260502150554 27 218 11.3 17.7 0.00 0.00 0.00 1009.3
20260502150249 27 218 11.3 17.7 0.00 0.00 0.00 1009.3
20260502123240 22 0 0.0 0.0 0.00 0.00 0.00 1008.2
20260502122237 21 0 0.0 0.0 0.00 0.00 0.00 1008.2
20260502121236 21 0 0.0 0.0 0.00 0.00 0.00 1008.1
20260502120236 22 90 6.4 11.3 0.00 0.00 0.00 1007.9
20260502115236 22 0 0.0 0.0 0.00 0.00 0.00 1008.0
20260502114232 21 0 0.0 0.0 0.00 0.00 0.00 1007.9
20260502113232 21 0 0.0 0.0 0.00 0.00 0.00 1007.9
20260502112231 21 0 0.0 0.0 0.00 0.00 0.00 1007.9
20260502111847 21 0 0.0 0.0 0.00 0.00 0.00 1007.7
20260502111231 21 0 0.0 0.0 0.00 0.00 0.00 1007.7
20260502110232 21 0 0.0 0.0 0.00 0.00 0.00 1007.5
20260502104346 21 0 0.0 0.0 0.00 0.00 0.00 1007.5
20260502104230 21 0 0.0 0.0 0.00 0.00 0.00 1007.5
20260502103340 21 0 0.0 0.0 0.00 0.00 0.00 1007.7
20260502103230 21 0 0.0 0.0 0.00 0.00 0.00 1007.5
20260502102230 21 0 0.0 0.0 0.00 0.00 0.00 1007.7
20260502101229 21 0 0.0 0.0 0.00 0.00 0.00 1007.9
20260502100227 21 0 0.0 0.0 0.00 0.00 0.00 1008.0
20260502091215 22 0 0.0 0.0 0.00 0.00 0.00 1008.1
20260502091107 22 0 0.0 0.0 0.00 0.00 0.00 1008.2
20260502090209 22 0 0.0 0.0 0.00 0.00 0.00 1008.1